Accueil
METAR-TAF:

METAR-TAF

Aéroports :

Chehalis, Washington, États-Unis

latitude: 46-40-37N, longitude: 122-58-58W, altitude: 54 m

Observation

Le bulletin a été fait il y a 21 minutes, à 14:55 UTC
Vent calme
Température 19°C
Humidité 78%
Pression 1015 hPa
Visibilité: 16.1 km
Ciel clair

METAR: KCLS 201455Z AUTO 00000KT 10SM CLR 19/15 A2998 RMK AO2

Heure: 08:16 (15:16 UTC)


TAF: absent

Observations et prévisions météorologiques de plus de 4000 aéroports (messages METAR et TAF).

Les stations disponibles sont représentées par des disques jaunes et rouges sur la carte.

Passer la souris dessus pour voir le nom de la station.

Cliquer dessus pour voir les observations et prévisions météorologiques.

Pour changer de carte: cliquez sur les boutons verts avec une croix noire pour zoomer, sur le bouton vert avec un tiret pour effectuer un zoom arrière, ou sur les flèches vertes pour les cartes adjacentes.


METAR-TAF: